Time,TemperatureF,DewpointF,PressureIn,WindDirection,WindDirectionDegrees,WindSpeedMPH,WindSpeedGustMPH,Humidity,HourlyPrecipIn,Conditions,Clouds,dailyrainin,SoftwareType,DateUTC
2013-10-08 00:03:00,59.5,46.9,29.78,NW,315,0.0,0.0,63,0.00,,,0.00,LWC V2.10 B1813,2013-10-08 07:03:00,
2013-10-08 00:08:00,59.5,46.9,29.78,NW,315,0.0,0.0,63,0.00,,,0.00,LWC V2.10 B1813,2013-10-08 07:08:00,
2013-10-08 00:13:00,59.4,47.2,29.78,NW,315,0.0,0.0,64,0.00,,,0.00,LWC V2.10 B1813,2013-10-08 07:13:00,
2013-10-08 00:18:00,59.2,47.0,29.78,NW,315,0.0,0.0,64,0.00,,,0.00,LWC V2.10 B1813,2013-10-08 07:18:00,
2013-10-08 00:23:00,59.2,47.4,29.78,WNW,292,0.0,0.0,65,0.00,,,0.00,LWC V2.10 B1813,2013-10-08 07:23:00,
2013-10-08 00:28:00,59.0,47.2,29.78,WNW,292,0.0,0.0,65,0.00,,,0.00,LWC V2.10 B1813,2013-10-08 07:28:00,
2013-10-08 00:33:00,58.8,46.6,29.78,WNW,292,0.0,0.0,64,0.00,,,0.00,LWC V2.10 B1813,2013-10-08 07:33:00,
2013-10-08 00:38:00,58.8,46.6,29.77,WNW,292,0.0,0.0,64,0.00,,,0.00,LWC V2.10 B1813,2013-10-08 07:38:00,
2013-10-08 00:43:00,58.8,47.0,29.77,WNW,292,0.0,0.0,65,0.00,,,0.00,LWC V2.10 B1813,2013-10-08 07:43:00,
2013-10-08 00:48:00,58.6,46.9,29.77,NW,315,0.0,0.0,65,0.00,,,0.00,LWC V2.10 B1813,2013-10-08 07:48:00,
2013-10-08 00:53:00,58.6,46.9,29.78,NW,315,0.0,0.0,65,0.00,,,0.00,LWC V2.10 B1813,2013-10-08 07:53:00,
2013-10-08 00:58:00,58.5,46.7,29.77,NW,315,0.0,0.0,65,0.00,,,0.00,LWC V2.10 B1813,2013-10-08 07:58:00,
2013-10-08 01:03:00,58.5,47.1,29.77,WNW,292,0.0,0.0,66,0.00,,,0.00,LWC V2.10 B1813,2013-10-08 08:03:00,
2013-10-08 01:08:00,58.3,46.9,29.78,WNW,292,0.0,0.0,66,0.00,,,0.00,LWC V2.10 B1813,2013-10-08 08:08:00,
2013-10-08 01:13:00,58.1,47.2,29.77,WNW,292,0.0,0.0,67,0.00,,,0.00,LWC V2.10 B1813,2013-10-08 08:13:00,
2013-10-08 01:18:00,57.9,47.4,29.77,West,270,0.0,0.0,68,0.00,,,0.00,LWC V2.10 B1813,2013-10-08 08:18:00,
2013-10-08 01:23:00,57.9,47.0,29.77,West,270,0.0,0.0,67,0.00,,,0.00,LWC V2.10 B1813,2013-10-08 08:23:00,
2013-10-08 01:28:00,57.7,47.2,29.77,WSW,247,0.0,0.0,68,0.00,,,0.00,LWC V2.10 B1813,2013-10-08 08:28:00,
2013-10-08 01:33:00,57.6,47.0,29.77,SW,225,2.5,2.5,68,0.00,,,0.00,LWC V2.10 B1813,2013-10-08 08:33:00,
2013-10-08 01:38:00,57.4,46.8,29.77,SW,225,0.0,0.9,68,0.00,,,0.00,LWC V2.10 B1813,2013-10-08 08:38:00,
2013-10-08 01:43:00,57.4,46.8,29.77,SW,225,0.0,0.0,68,0.00,,,0.00,LWC V2.10 B1813,2013-10-08 08:43:00,
2013-10-08 01:48:00,57.2,46.7,29.77,SW,225,0.0,0.0,68,0.00,,,0.00,LWC V2.10 B1813,2013-10-08 08:48:00,
2013-10-08 01:53:00,57.2,46.7,29.77,SW,225,0.0,0.0,68,0.00,,,0.00,LWC V2.10 B1813,2013-10-08 08:53:00,
2013-10-08 01:58:00,57.0,46.9,29.77,SW,225,0.0,0.0,69,0.00,,,0.00,LWC V2.10 B1813,2013-10-08 08:58:00,
2013-10-08 02:03:00,57.0,46.9,29.77,SW,225,0.0,0.0,69,0.00,,,0.00,LWC V2.10 B1813,2013-10-08 09:03:00,
2013-10-08 02:08:00,56.8,46.7,29.77,SW,225,0.0,0.0,69,0.00,,,0.00,LWC V2.10 B1813,2013-10-08 09:08:00,
2013-10-08 02:13:00,56.8,46.7,29.77,WSW,247,0.0,0.0,69,0.00,,,0.00,LWC V2.10 B1813,2013-10-08 09:13:00,
2013-10-08 02:18:00,56.8,47.2,29.77,WSW,247,0.0,0.0,70,0.00,,,0.00,LWC V2.10 B1813,2013-10-08 09:18:00,
2013-10-08 02:23:00,56.7,47.0,29.77,SW,225,0.0,0.0,70,0.00,,,0.00,LWC V2.10 B1813,2013-10-08 09:23:00,
2013-10-08 02:28:00,56.5,46.8,29.77,SW,225,2.7,2.7,70,0.00,,,0.00,LWC V2.10 B1813,2013-10-08 09:28:00,
2013-10-08 02:33:00,56.5,46.8,29.76,SW,225,0.0,0.0,70,0.00,,,0.00,LWC V2.10 B1813,2013-10-08 09:33:00,
2013-10-08 02:38:00,56.3,46.7,29.76,SW,225,0.0,0.0,70,0.00,,,0.00,LWC V2.10 B1813,2013-10-08 09:38:00,
2013-10-08 02:43:00,56.1,46.5,29.76,SW,225,0.0,0.0,70,0.00,,,0.00,LWC V2.10 B1813,2013-10-08 09:43:00,
2013-10-08 02:48:00,56.1,46.8,29.76,SW,225,0.0,0.0,71,0.00,,,0.00,LWC V2.10 B1813,2013-10-08 09:48:00,
2013-10-08 02:53:00,56.1,46.5,29.76,SW,225,0.0,0.0,70,0.00,,,0.00,LWC V2.10 B1813,2013-10-08 09:53:00,
2013-10-08 02:58:00,55.9,46.7,29.76,SW,225,0.0,0.0,71,0.00,,,0.00,LWC V2.10 B1813,2013-10-08 09:58:00,
2013-10-08 03:03:00,55.9,46.7,29.76,SW,225,0.0,0.0,71,0.00,,,0.00,LWC V2.10 B1813,2013-10-08 10:03:00,
2013-10-08 03:08:00,55.9,47.0,29.77,SW,225,0.0,0.0,72,0.00,,,0.00,LWC V2.10 B1813,2013-10-08 10:08:00,
2013-10-08 03:13:00,55.9,47.0,29.76,SW,225,0.0,0.0,72,0.00,,,0.00,LWC V2.10 B1813,2013-10-08 10:13:00,
2013-10-08 03:23:00,55.8,46.9,29.77,SW,225,0.0,0.0,72,0.00,,,0.00,LWC V2.10 B1813,2013-10-08 10:23:00,
2013-10-08 03:28:00,55.8,47.2,29.76,SSW,202,3.1,4.0,73,0.00,,,0.00,LWC V2.10 B1813,2013-10-08 10:28:00,
2013-10-08 03:33:00,55.6,47.0,29.77,SSW,202,0.7,0.7,73,0.00,,,0.00,LWC V2.10 B1813,2013-10-08 10:33:00,
2013-10-08 03:38:00,55.2,47.0,29.77,SW,225,0.0,0.0,74,0.00,,,0.00,LWC V2.10 B1813,2013-10-08 10:38:00,
2013-10-08 03:43:00,55.0,46.9,29.76,SW,225,0.0,0.0,74,0.00,,,0.00,LWC V2.10 B1813,2013-10-08 10:43:00,
2013-10-08 03:48:00,55.0,46.9,29.77,SW,225,0.0,0.0,74,0.00,,,0.00,LWC V2.10 B1813,2013-10-08 10:48:00,
2013-10-08 03:53:00,55.0,46.9,29.77,SW,225,0.0,0.0,74,0.00,,,0.00,LWC V2.10 B1813,2013-10-08 10:53:00,
2013-10-08 03:58:00,55.0,46.9,29.77,SW,225,0.0,0.0,74,0.00,,,0.00,LWC V2.10 B1813,2013-10-08 10:58:00,
2013-10-08 04:03:00,55.0,46.9,29.77,SW,225,0.0,0.0,74,0.00,,,0.00,LWC V2.10 B1813,2013-10-08 11:03:00,
2013-10-08 04:08:00,55.0,46.9,29.77,SSW,202,0.0,0.0,74,0.00,,,0.00,LWC V2.10 B1813,2013-10-08 11:08:00,
2013-10-08 04:13:00,55.2,47.0,29.77,SSW,202,0.0,0.0,74,0.00,,,0.00,LWC V2.10 B1813,2013-10-08 11:13:00,
2013-10-08 04:18:00,55.2,47.0,29.77,SW,225,0.0,0.0,74,0.00,,,0.00,LWC V2.10 B1813,2013-10-08 11:18:00,
2013-10-08 04:23:00,55.2,47.0,29.77,SW,225,0.0,0.0,74,0.00,,,0.00,LWC V2.10 B1813,2013-10-08 11:23:00,
2013-10-08 04:28:00,55.2,47.0,29.77,SW,225,0.0,0.0,74,0.00,,,0.00,LWC V2.10 B1813,2013-10-08 11:28:00,
2013-10-08 04:33:00,55.2,46.7,29.77,SW,225,0.0,0.0,73,0.00,,,0.00,LWC V2.10 B1813,2013-10-08 11:33:00,
2013-10-08 04:38:00,55.2,46.7,29.77,SW,225,0.0,0.0,73,0.00,,,0.00,LWC V2.10 B1813,2013-10-08 11:38:00,
2013-10-08 04:43:00,55.2,46.7,29.77,SW,225,0.0,0.0,73,0.00,,,0.00,LWC V2.10 B1813,2013-10-08 11:43:00,
2013-10-08 04:48:00,55.2,47.0,29.77,SW,225,0.0,0.0,74,0.00,,,0.00,LWC V2.10 B1813,2013-10-08 11:48:00,
2013-10-08 04:53:00,55.2,46.7,29.77,SW,225,0.0,0.0,73,0.00,,,0.00,LWC V2.10 B1813,2013-10-08 11:53:00,
2013-10-08 04:58:00,55.2,47.0,29.76,SW,225,0.0,0.0,74,0.00,,,0.00,LWC V2.10 B1813,2013-10-08 11:58:00,
2013-10-08 05:03:00,55.2,47.0,29.77,SW,225,0.0,0.0,74,0.00,,,0.00,LWC V2.10 B1813,2013-10-08 12:03:00,
2013-10-08 05:08:00,55.2,47.0,29.77,SW,225,0.0,0.0,74,0.00,,,0.00,LWC V2.10 B1813,2013-10-08 12:08:00,
2013-10-08 05:13:00,55.0,46.9,29.76,SW,225,0.0,0.0,74,0.00,,,0.00,LWC V2.10 B1813,2013-10-08 12:13:00,
2013-10-08 05:18:00,55.0,46.9,29.76,SW,225,0.0,0.0,74,0.00,,,0.00,LWC V2.10 B1813,2013-10-08 12:18:00,
2013-10-08 05:23:00,55.0,46.9,29.76,SW,225,0.0,0.0,74,0.00,,,0.00,LWC V2.10 B1813,2013-10-08 12:23:00,
2013-10-08 05:28:00,55.0,46.9,29.76,SW,225,0.0,0.0,74,0.00,,,0.00,LWC V2.10 B1813,2013-10-08 12:28:00,
2013-10-08 05:33:00,55.0,47.2,29.76,SW,225,0.0,0.0,75,0.00,,,0.00,LWC V2.10 B1813,2013-10-08 12:33:00,
2013-10-08 05:43:00,54.9,47.0,29.76,SW,225,0.0,0.0,75,0.00,,,0.00,LWC V2.10 B1813,2013-10-08 12:43:00,
2013-10-08 05:48:00,54.9,47.0,29.77,SW,225,0.0,0.0,75,0.00,,,0.00,LWC V2.10 B1813,2013-10-08 12:48:00,
2013-10-08 05:53:00,54.7,47.0,29.77,SW,225,0.0,0.0,75,0.00,,,0.00,LWC V2.10 B1813,2013-10-08 12:53:00,
2013-10-08 05:58:00,54.7,46.9,29.77,SW,225,0.0,0.0,75,0.00,,,0.00,LWC V2.10 B1813,2013-10-08 12:58:00,
2013-10-08 06:03:00,54.7,46.9,29.77,SW,225,0.0,0.0,75,0.00,,,0.00,LWC V2.10 B1813,2013-10-08 13:03:00,
2013-10-08 06:08:00,54.7,46.9,29.78,SW,225,0.0,0.0,75,0.00,,,0.00,LWC V2.10 B1813,2013-10-08 13:08:00,
2013-10-08 06:13:00,54.7,47.2,29.78,SW,225,0.0,0.0,76,0.00,,,0.00,LWC V2.10 B1813,2013-10-08 13:13:00,
2013-10-08 06:18:00,54.5,47.1,29.78,SW,225,0.0,0.0,76,0.00,,,0.00,LWC V2.10 B1813,2013-10-08 13:18:00,
2013-10-08 06:23:00,54.5,47.1,29.78,SW,225,0.0,0.0,76,0.00,,,0.00,LWC V2.10 B1813,2013-10-08 13:23:00,
2013-10-08 06:28:00,54.5,47.1,29.78,SW,225,0.0,0.0,76,0.00,,,0.00,LWC V2.10 B1813,2013-10-08 13:28:00,
2013-10-08 06:33:00,54.3,46.9,29.78,SW,225,0.0,0.0,76,0.00,,,0.00,LWC V2.10 B1813,2013-10-08 13:33:00,
2013-10-08 06:38:00,54.3,46.9,29.78,SW,225,0.0,0.0,76,0.00,,,0.00,LWC V2.10 B1813,2013-10-08 13:38:00,
2013-10-08 06:43:00,54.3,47.2,29.79,SW,225,0.0,0.0,77,0.00,,,0.00,LWC V2.10 B1813,2013-10-08 13:43:00,
2013-10-08 06:48:00,54.3,47.2,29.78,SW,225,0.0,0.0,77,0.00,,,0.00,LWC V2.10 B1813,2013-10-08 13:48:00,
2013-10-08 06:53:00,54.3,47.2,29.79,SW,225,0.0,0.0,77,0.00,,,0.00,LWC V2.10 B1813,2013-10-08 13:53:00,
2013-10-08 06:58:00,54.3,47.2,29.78,SW,225,0.0,0.0,77,0.00,,,0.00,LWC V2.10 B1813,2013-10-08 13:58:00,
2013-10-08 07:03:00,54.3,47.2,29.79,SW,225,0.0,0.0,77,0.00,,,0.00,LWC V2.10 B1813,2013-10-08 14:03:00,
2013-10-08 07:08:00,54.3,47.2,29.79,SW,225,0.0,0.0,77,0.00,,,0.00,LWC V2.10 B1813,2013-10-08 14:08:00,
2013-10-08 07:13:00,54.3,47.6,29.79,SW,225,0.0,0.0,78,0.00,,,0.00,LWC V2.10 B1813,2013-10-08 14:13:00,
2013-10-08 07:18:00,54.3,47.6,29.79,SW,225,0.0,0.0,78,0.00,,,0.00,LWC V2.10 B1813,2013-10-08 14:18:00,
2013-10-08 07:23:00,54.3,47.6,29.79,SW,225,0.0,0.0,78,0.00,,,0.00,LWC V2.10 B1813,2013-10-08 14:23:00,
2013-10-08 07:28:00,54.3,47.9,29.79,SW,225,0.0,0.0,79,0.00,,,0.00,LWC V2.10 B1813,2013-10-08 14:28:00,
2013-10-08 07:33:00,54.3,47.9,29.79,SW,225,0.0,0.0,79,0.00,,,0.00,LWC V2.10 B1813,2013-10-08 14:33:00,
2013-10-08 07:38:00,55.0,48.3,29.79,SW,225,0.0,0.0,79,0.00,,,0.00,LWC V2.10 B1813,2013-10-08 14:38:00,
2013-10-08 07:43:00,55.8,49.3,29.79,SW,225,0.0,0.0,79,0.00,,,0.00,LWC V2.10 B1813,2013-10-08 14:43:00,
2013-10-08 07:48:00,56.5,49.6,29.79,SW,225,0.0,0.0,78,0.00,,,0.00,LWC V2.10 B1813,2013-10-08 14:48:00,
2013-10-08 07:53:00,57.6,50.9,29.79,SW,225,0.0,0.0,77,0.00,,,0.00,LWC V2.10 B1813,2013-10-08 14:53:00,
2013-10-08 07:58:00,59.2,51.3,29.79,SW,225,0.0,0.0,75,0.00,,,0.00,LWC V2.10 B1813,2013-10-08 14:58:00,
2013-10-08 08:03:00,59.7,51.1,29.79,South,180,0.0,0.0,73,0.00,,,0.00,LWC V2.10 B1813,2013-10-08 15:03:00,
2013-10-08 08:08:00,60.4,51.4,29.79,South,180,0.0,0.0,72,0.00,,,0.00,LWC V2.10 B1813,2013-10-08 15:08:00,
2013-10-08 08:13:00,60.6,51.3,29.79,ESE,112,0.0,0.0,71,0.00,,,0.00,LWC V2.10 B1813,2013-10-08 15:13:00,
2013-10-08 08:18:00,60.6,50.9,29.79,East,90,0.0,0.0,70,0.00,,,0.00,LWC V2.10 B1813,2013-10-08 15:18:00,
2013-10-08 08:23:00,60.4,50.9,29.79,SE,135,0.0,0.0,70,0.00,,,0.00,LWC V2.10 B1813,2013-10-08 15:23:00,
2013-10-08 08:28:00,60.4,50.7,29.79,East,90,0.0,0.0,70,0.00,,,0.00,LWC V2.10 B1813,2013-10-08 15:28:00,
2013-10-08 08:33:00,60.4,50.7,29.80,NE,45,0.0,0.0,70,0.00,,,0.00,LWC V2.10 B1813,2013-10-08 15:33:00,
2013-10-08 08:38:00,60.4,50.4,29.80,NE,45,0.0,0.0,70,0.00,,,0.00,LWC V2.10 B1813,2013-10-08 15:38:00,
2013-10-08 08:43:00,60.1,50.4,29.80,NE,45,0.0,0.0,70,0.00,,,0.00,LWC V2.10 B1813,2013-10-08 15:43:00,
2013-10-08 08:48:00,59.9,50.5,29.80,NNE,22,0.0,0.0,71,0.00,,,0.00,LWC V2.10 B1813,2013-10-08 15:48:00,
2013-10-08 08:53:00,59.7,50.4,29.79,ENE,67,0.0,0.0,71,0.00,,,0.00,LWC V2.10 B1813,2013-10-08 15:53:00,
2013-10-08 08:58:00,59.5,50.2,29.80,ENE,67,0.0,0.0,71,0.00,,,0.00,LWC V2.10 B1813,2013-10-08 15:58:00,
2013-10-08 09:03:00,59.2,50.2,29.79,ENE,67,0.0,0.0,72,0.00,,,0.00,LWC V2.10 B1813,2013-10-08 16:03:00,
2013-10-08 09:08:00,59.2,50.2,29.79,NE,45,0.0,0.0,72,0.00,,,0.00,LWC V2.10 B1813,2013-10-08 16:08:00,
2013-10-08 09:13:00,59.2,50.2,29.80,NE,45,0.0,0.0,72,0.00,,,0.00,LWC V2.10 B1813,2013-10-08 16:13:00,
2013-10-08 09:18:00,59.4,50.4,29.80,NNE,22,0.0,0.0,72,0.00,,,0.00,LWC V2.10 B1813,2013-10-08 16:18:00,
2013-10-08 09:23:00,59.7,51.1,29.80,NNE,22,0.0,0.7,73,0.00,,,0.00,LWC V2.10 B1813,2013-10-08 16:23:00,
2013-10-08 09:28:00,60.6,51.3,29.80,ENE,67,0.0,1.3,71,0.00,,,0.00,LWC V2.10 B1813,2013-10-08 16:28:00,
2013-10-08 09:33:00,61.5,52.1,29.80,NNE,22,0.0,0.0,71,0.00,,,0.00,LWC V2.10 B1813,2013-10-08 16:33:00,
2013-10-08 09:38:00,62.4,51.7,29.80,NNE,22,0.0,0.0,68,0.00,,,0.00,LWC V2.10 B1813,2013-10-08 16:38:00,
2013-10-08 09:43:00,63.0,51.8,29.80,NNE,22,0.0,0.0,67,0.00,,,0.00,LWC V2.10 B1813,2013-10-08 16:43:00,
2013-10-08 09:48:00,63.5,51.9,29.80,NNE,22,0.0,0.0,66,0.00,,,0.00,LWC V2.10 B1813,2013-10-08 16:48:00,
2013-10-08 09:53:00,64.0,52.0,29.80,NNE,22,0.0,0.0,65,0.00,,,0.00,LWC V2.10 B1813,2013-10-08 16:53:00,
2013-10-08 09:58:00,64.2,51.7,29.80,NE,45,0.0,0.0,64,0.00,,,0.00,LWC V2.10 B1813,2013-10-08 16:58:00,
2013-10-08 10:03:00,64.4,51.5,29.80,NNE,22,0.0,0.0,63,0.00,,,0.00,LWC V2.10 B1813,2013-10-08 17:03:00,
2013-10-08 10:08:00,64.2,51.3,29.81,NNE,22,0.0,0.0,63,0.00,,,0.00,LWC V2.10 B1813,2013-10-08 17:08:00,
2013-10-08 10:13:00,64.2,51.7,29.81,NNE,22,0.0,0.0,64,0.00,,,0.00,LWC V2.10 B1813,2013-10-08 17:13:00,
2013-10-08 10:18:00,64.2,51.3,29.81,NNE,22,0.0,0.0,63,0.00,,,0.00,LWC V2.10 B1813,2013-10-08 17:18:00,
2013-10-08 10:23:00,64.0,51.6,29.80,NNE,22,0.0,0.0,63,0.00,,,0.00,LWC V2.10 B1813,2013-10-08 17:23:00,
2013-10-08 10:28:00,64.0,51.1,29.80,NNE,22,0.0,0.0,63,0.00,,,0.00,LWC V2.10 B1813,2013-10-08 17:28:00,
2013-10-08 10:33:00,64.0,51.1,29.80,NNE,22,0.0,0.0,63,0.00,,,0.00,LWC V2.10 B1813,2013-10-08 17:33:00,
2013-10-08 10:38:00,64.0,51.1,29.80,NNE,22,0.0,0.0,64,0.00,,,0.00,LWC V2.10 B1813,2013-10-08 17:38:00,
2013-10-08 10:43:00,64.0,51.6,29.80,NNE,22,0.0,0.0,64,0.00,,,0.00,LWC V2.10 B1813,2013-10-08 17:43:00,
2013-10-08 10:48:00,64.0,51.1,29.80,NE,45,0.0,0.0,63,0.00,,,0.00,LWC V2.10 B1813,2013-10-08 17:48:00,
2013-10-08 10:53:00,64.2,51.3,29.80,ENE,67,0.0,0.0,63,0.00,,,0.00,LWC V2.10 B1813,2013-10-08 17:53:00,
2013-10-08 10:58:00,64.2,51.3,29.79,NNE,22,0.0,0.0,63,0.00,,,0.00,LWC V2.10 B1813,2013-10-08 17:58:00,
2013-10-08 11:03:00,64.6,51.6,29.79,NE,45,1.1,1.1,63,0.00,,,0.00,LWC V2.10 B1813,2013-10-08 18:03:00,
2013-10-08 11:08:00,64.8,51.8,29.79,NNW,337,0.0,0.0,63,0.00,,,0.00,LWC V2.10 B1813,2013-10-08 18:08:00,
2013-10-08 11:13:00,65.1,51.7,29.79,North,0,0.0,0.0,62,0.00,,,0.00,LWC V2.10 B1813,2013-10-08 18:13:00,
2013-10-08 11:18:00,65.3,51.5,29.79,NNE,22,1.3,1.3,61,0.00,,,0.00,LWC V2.10 B1813,2013-10-08 18:18:00,
2013-10-08 11:23:00,65.8,51.6,29.78,NNE,22,0.0,0.0,60,0.00,,,0.00,LWC V2.10 B1813,2013-10-08 18:23:00,
2013-10-08 11:28:00,66.4,52.1,29.78,NNE,22,0.0,0.0,60,0.00,,,0.00,LWC V2.10 B1813,2013-10-08 18:28:00,
2013-10-08 11:33:00,66.7,51.5,29.78,NNE,22,0.0,0.0,58,0.00,,,0.00,LWC V2.10 B1813,2013-10-08 18:33:00,
2013-10-08 11:38:00,67.5,51.7,29.77,NNE,22,0.0,0.0,57,0.00,,,0.00,LWC V2.10 B1813,2013-10-08 18:38:00,
2013-10-08 11:43:00,67.8,51.5,29.77,NNE,22,0.0,1.6,56,0.00,,,0.00,LWC V2.10 B1813,2013-10-08 18:43:00,
2013-10-08 11:48:00,68.5,50.7,29.77,North,0,0.0,0.0,53,0.00,,,0.00,LWC V2.10 B1813,2013-10-08 18:48:00,
2013-10-08 11:53:00,69.1,49.6,29.77,SSW,202,3.8,3.8,49,0.00,,,0.00,LWC V2.10 B1813,2013-10-08 18:53:00,
2013-10-08 11:58:00,70.5,50.4,29.77,NE,45,0.0,0.0,49,0.00,,,0.00,LWC V2.10 B1813,2013-10-08 18:58:00,
2013-10-08 12:03:00,71.2,49.3,29.76,SSW,202,2.5,2.5,46,0.00,,,0.00,LWC V2.10 B1813,2013-10-08 19:03:00,
2013-10-08 12:08:00,71.8,48.6,29.76,SW,225,4.2,5.1,46,0.00,,,0.00,LWC V2.10 B1813,2013-10-08 19:08:00,
2013-10-08 12:13:00,72.1,51.3,29.76,SSW,202,1.3,1.8,48,0.00,,,0.00,LWC V2.10 B1813,2013-10-08 19:13:00,
2013-10-08 12:18:00,72.1,52.5,29.76,SW,225,1.8,1.8,50,0.00,,,0.00,LWC V2.10 B1813,2013-10-08 19:18:00,
2013-10-08 12:23:00,71.4,52.8,29.76,SW,225,3.4,3.4,52,0.00,,,0.00,LWC V2.10 B1813,2013-10-08 19:23:00,
2013-10-08 12:28:00,70.9,52.8,29.76,SSW,202,0.0,6.0,53,0.00,,,0.00,LWC V2.10 B1813,2013-10-08 19:28:00,
2013-10-08 12:33:00,70.3,52.4,29.76,South,180,0.9,0.9,53,0.00,,,0.00,LWC V2.10 B1813,2013-10-08 19:33:00,
2013-10-08 12:38:00,69.4,52.0,29.76,SSW,202,1.8,1.8,54,0.00,,,0.00,LWC V2.10 B1813,2013-10-08 19:38:00,
2013-10-08 12:43:00,69.1,51.7,29.76,SE,135,0.0,0.0,54,0.00,,,0.00,LWC V2.10 B1813,2013-10-08 19:43:00,
2013-10-08 12:48:00,68.7,51.3,29.76,SSW,202,5.1,5.1,54,0.00,,,0.00,LWC V2.10 B1813,2013-10-08 19:48:00,
2013-10-08 12:53:00,68.7,51.3,29.76,East,90,2.2,2.2,54,0.00,,,0.00,LWC V2.10 B1813,2013-10-08 19:53:00,
2013-10-08 12:58:00,68.5,50.7,29.75,SSW,202,2.0,2.0,53,0.00,,,0.00,LWC V2.10 B1813,2013-10-08 19:58:00,
2013-10-08 13:03:00,68.7,50.9,29.74,East,90,0.0,0.0,53,0.00,,,0.00,LWC V2.10 B1813,2013-10-08 20:03:00,
2013-10-08 13:08:00,68.7,50.4,29.75,NNW,337,0.0,0.0,52,0.00,,,0.00,LWC V2.10 B1813,2013-10-08 20:08:00,
2013-10-08 13:13:00,69.1,50.2,29.74,South,180,2.9,2.9,51,0.00,,,0.00,LWC V2.10 B1813,2013-10-08 20:13:00,
2013-10-08 13:18:00,69.4,50.5,29.73,WNW,292,0.0,0.0,51,0.00,,,0.00,LWC V2.10 B1813,2013-10-08 20:18:00,
2013-10-08 13:23:00,69.8,50.4,29.73,NW,315,0.0,0.0,50,0.00,,,0.00,LWC V2.10 B1813,2013-10-08 20:23:00,
2013-10-08 13:28:00,70.2,50.7,29.73,ENE,67,0.0,0.0,50,0.00,,,0.00,LWC V2.10 B1813,2013-10-08 20:28:00,
2013-10-08 13:33:00,70.0,50.5,29.73,SW,225,0.0,0.0,50,0.00,,,0.00,LWC V2.10 B1813,2013-10-08 20:33:00,
2013-10-08 13:38:00,70.2,50.7,29.72,North,0,1.1,1.1,50,0.00,,,0.00,LWC V2.10 B1813,2013-10-08 20:38:00,
2013-10-08 13:43:00,70.3,50.8,29.72,SW,225,4.9,4.9,50,0.00,,,0.00,LWC V2.10 B1813,2013-10-08 20:43:00,
2013-10-08 13:48:00,70.2,50.1,29.72,WSW,247,0.0,0.0,49,0.00,,,0.00,LWC V2.10 B1813,2013-10-08 20:48:00,
2013-10-08 13:53:00,70.0,49.3,29.71,South,180,6.3,6.3,48,0.00,,,0.00,LWC V2.10 B1813,2013-10-08 20:53:00,
2013-10-08 13:58:00,70.0,49.9,29.71,East,90,1.3,1.3,49,0.00,,,0.00,LWC V2.10 B1813,2013-10-08 20:58:00,
2013-10-08 14:03:00,69.6,49.6,29.71,ENE,67,2.9,2.9,49,0.00,,,0.00,LWC V2.10 B1813,2013-10-08 21:03:00,
2013-10-08 14:08:00,69.6,49.6,29.71,WSW,247,0.0,0.0,49,0.00,,,0.00,LWC V2.10 B1813,2013-10-08 21:08:00,
2013-10-08 14:13:00,69.6,49.0,29.70,SSW,202,1.8,1.8,48,0.00,,,0.00,LWC V2.10 B1813,2013-10-08 21:13:00,
2013-10-08 14:18:00,69.6,49.0,29.70,East,90,2.7,2.7,48,0.00,,,0.00,LWC V2.10 B1813,2013-10-08 21:18:00,
2013-10-08 14:23:00,69.4,48.8,29.69,West,270,0.0,0.0,48,0.00,,,0.00,LWC V2.10 B1813,2013-10-08 21:23:00,
2013-10-08 14:28:00,69.3,48.1,29.69,NNW,337,0.7,0.7,47,0.00,,,0.00,LWC V2.10 B1813,2013-10-08 21:28:00,
2013-10-08 14:33:00,69.1,47.9,29.69,WSW,247,6.0,6.0,47,0.00,,,0.00,LWC V2.10 B1813,2013-10-08 21:33:00,
2013-10-08 14:38:00,68.7,47.6,29.69,SW,225,0.0,1.1,47,0.00,,,0.00,LWC V2.10 B1813,2013-10-08 21:38:00,
2013-10-08 14:43:00,68.5,47.4,29.68,West,270,10.1,10.1,47,0.00,,,0.00,LWC V2.10 B1813,2013-10-08 21:43:00,
2013-10-08 14:48:00,68.2,46.5,29.68,SW,225,4.5,4.5,46,0.00,,,0.00,LWC V2.10 B1813,2013-10-08 21:48:00,
2013-10-08 14:53:00,67.8,46.8,29.68,SSW,202,4.9,4.9,47,0.00,,,0.00,LWC V2.10 B1813,2013-10-08 21:53:00,
2013-10-08 14:58:00,67.8,47.4,29.68,West,270,2.5,2.5,48,0.00,,,0.00,LWC V2.10 B1813,2013-10-08 21:58:00,
2013-10-08 15:03:00,67.6,47.2,29.68,West,270,2.7,2.7,48,0.00,,,0.00,LWC V2.10 B1813,2013-10-08 22:03:00,
2013-10-08 15:08:00,67.3,47.5,29.68,WSW,247,7.2,7.2,49,0.00,,,0.00,LWC V2.10 B1813,2013-10-08 22:08:00,
2013-10-08 15:13:00,67.1,47.3,29.68,WSW,247,0.0,0.0,49,0.00,,,0.00,LWC V2.10 B1813,2013-10-08 22:13:00,
2013-10-08 15:18:00,66.9,47.2,29.67,West,270,0.0,0.0,49,0.00,,,0.00,LWC V2.10 B1813,2013-10-08 22:18:00,
2013-10-08 15:23:00,66.7,47.6,29.67,WNW,292,7.6,7.6,50,0.00,,,0.00,LWC V2.10 B1813,2013-10-08 22:23:00,
2013-10-08 15:28:00,66.7,48.1,29.67,SW,225,10.1,10.1,51,0.00,,,0.00,LWC V2.10 B1813,2013-10-08 22:28:00,
2013-10-08 15:33:00,66.4,47.8,29.68,SSW,202,3.8,3.8,51,0.00,,,0.00,LWC V2.10 B1813,2013-10-08 22:33:00,
2013-10-08 15:38:00,66.0,47.4,29.68,West,270,0.0,2.9,51,0.00,,,0.00,LWC V2.10 B1813,2013-10-08 22:38:00,
2013-10-08 15:43:00,65.8,46.8,29.68,WSW,247,3.8,3.8,50,0.00,,,0.00,LWC V2.10 B1813,2013-10-08 22:43:00,
2013-10-08 15:48:00,65.7,46.6,29.68,WSW,247,1.1,1.1,50,0.00,,,0.00,LWC V2.10 B1813,2013-10-08 22:48:00,
2013-10-08 15:53:00,65.3,46.2,29.68,SW,225,5.8,5.8,50,0.00,,,0.00,LWC V2.10 B1813,2013-10-08 22:53:00,
2013-10-08 15:58:00,65.1,46.0,29.68,West,270,0.0,0.0,50,0.00,,,0.00,LWC V2.10 B1813,2013-10-08 22:58:00,
2013-10-08 16:03:00,65.1,46.0,29.67,SSW,202,2.0,2.0,50,0.00,,,0.00,LWC V2.10 B1813,2013-10-08 23:03:00,
2013-10-08 16:08:00,64.9,45.9,29.67,NW,315,0.0,0.0,50,0.00,,,0.00,LWC V2.10 B1813,2013-10-08 23:08:00,
2013-10-08 16:13:00,64.9,45.3,29.67,WSW,247,11.0,11.0,49,0.00,,,0.00,LWC V2.10 B1813,2013-10-08 23:13:00,
2013-10-08 16:18:00,64.9,45.3,29.66,South,180,6.5,6.5,49,0.00,,,0.00,LWC V2.10 B1813,2013-10-08 23:18:00,
2013-10-08 16:23:00,64.6,44.3,29.66,WSW,247,1.1,1.1,48,0.00,,,0.00,LWC V2.10 B1813,2013-10-08 23:23:00,
2013-10-08 16:28:00,64.6,44.9,29.66,NNW,337,4.5,4.5,49,0.00,,,0.00,LWC V2.10 B1813,2013-10-08 23:28:00,
2013-10-08 16:33:00,64.4,45.3,29.66,WSW,247,15.7,15.7,50,0.00,,,0.00,LWC V2.10 B1813,2013-10-08 23:33:00,
2013-10-08 16:38:00,64.2,45.2,29.66,SSW,202,2.7,4.0,50,0.00,,,0.00,LWC V2.10 B1813,2013-10-08 23:38:00,
2013-10-08 16:43:00,64.2,45.6,29.65,WNW,292,0.0,0.0,51,0.00,,,0.00,LWC V2.10 B1813,2013-10-08 23:43:00,
2013-10-08 16:48:00,64.2,46.6,29.65,SSW,202,6.3,6.3,53,0.00,,,0.00,LWC V2.10 B1813,2013-10-08 23:48:00,
2013-10-08 16:53:00,63.7,46.1,29.65,ENE,67,5.4,6.5,53,0.00,,,0.00,LWC V2.10 B1813,2013-10-08 23:53:00,
2013-10-08 16:58:00,63.5,46.0,29.66,NNE,22,0.0,0.0,53,0.00,,,0.00,LWC V2.10 B1813,2013-10-08 23:58:00,
2013-10-08 17:03:00,63.3,45.3,29.66,North,0,2.9,2.9,52,0.00,,,0.00,LWC V2.10 B1813,2013-10-09 00:03:00,
2013-10-08 17:08:00,63.3,45.3,29.65,NE,45,0.0,4.2,52,0.00,,,0.00,LWC V2.10 B1813,2013-10-09 00:08:00,
2013-10-08 17:13:00,63.1,45.2,29.65,East,90,1.8,1.8,52,0.00,,,0.00,LWC V2.10 B1813,2013-10-09 00:13:00,
2013-10-08 17:18:00,63.1,45.6,29.64,NNW,337,0.0,0.0,53,0.00,,,0.00,LWC V2.10 B1813,2013-10-09 00:18:00,
2013-10-08 17:23:00,62.8,45.3,29.64,NNE,22,5.1,5.1,53,0.00,,,0.00,LWC V2.10 B1813,2013-10-09 00:23:00,
2013-10-08 17:28:00,62.4,45.0,29.64,WNW,292,2.2,2.2,53,0.00,,,0.00,LWC V2.10 B1813,2013-10-09 00:28:00,
2013-10-08 17:33:00,62.4,45.0,29.64,NW,315,0.0,0.0,53,0.00,,,0.00,LWC V2.10 B1813,2013-10-09 00:33:00,
2013-10-08 17:38:00,62.1,44.7,29.64,ENE,67,0.0,0.0,53,0.00,,,0.00,LWC V2.10 B1813,2013-10-09 00:38:00,
2013-10-08 17:43:00,61.9,45.0,29.64,NNE,22,5.6,5.6,54,0.00,,,0.00,LWC V2.10 B1813,2013-10-09 00:43:00,
2013-10-08 17:48:00,61.7,44.8,29.64,NNE,22,0.0,0.0,54,0.00,,,0.00,LWC V2.10 B1813,2013-10-09 00:48:00,
2013-10-08 17:53:00,61.5,44.7,29.63,NW,315,1.3,1.3,54,0.00,,,0.00,LWC V2.10 B1813,2013-10-09 00:53:00,
2013-10-08 17:58:00,61.3,44.5,29.63,NNE,22,0.0,0.0,54,0.00,,,0.00,LWC V2.10 B1813,2013-10-09 00:58:00,
2013-10-08 18:03:00,61.3,45.0,29.63,North,0,0.7,0.7,55,0.00,,,0.00,LWC V2.10 B1813,2013-10-09 01:03:00,
2013-10-08 18:08:00,61.0,44.7,29.63,North,0,3.4,3.4,55,0.00,,,0.00,LWC V2.10 B1813,2013-10-09 01:08:00,
2013-10-08 18:13:00,61.0,44.7,29.63,SE,135,0.0,0.0,55,0.00,,,0.00,LWC V2.10 B1813,2013-10-09 01:13:00,
2013-10-08 18:18:00,61.0,44.7,29.63,North,0,0.0,0.0,55,0.00,,,0.00,LWC V2.10 B1813,2013-10-09 01:18:00,
2013-10-08 18:23:00,61.0,45.2,29.63,WNW,292,0.0,0.0,56,0.00,,,0.00,LWC V2.10 B1813,2013-10-09 01:23:00,
2013-10-08 18:28:00,60.8,45.0,29.63,SSW,202,0.0,0.0,56,0.00,,,0.00,LWC V2.10 B1813,2013-10-09 01:28:00,
2013-10-08 18:33:00,60.6,44.8,29.63,WNW,292,0.0,0.0,56,0.00,,,0.00,LWC V2.10 B1813,2013-10-09 01:33:00,
2013-10-08 18:38:00,60.6,44.8,29.63,North,0,2.9,2.9,56,0.00,,,0.00,LWC V2.10 B1813,2013-10-09 01:38:00,
2013-10-08 18:43:00,60.6,44.8,29.63,North,0,0.0,0.0,56,0.00,,,0.00,LWC V2.10 B1813,2013-10-09 01:43:00,
2013-10-08 18:48:00,60.6,44.8,29.63,North,0,0.0,0.0,56,0.00,,,0.00,LWC V2.10 B1813,2013-10-09 01:48:00,
2013-10-08 18:53:00,60.6,45.3,29.63,NNW,337,0.0,0.0,57,0.00,,,0.00,LWC V2.10 B1813,2013-10-09 01:53:00,
2013-10-08 18:58:00,60.4,45.1,29.63,NNW,337,0.0,0.0,57,0.00,,,0.00,LWC V2.10 B1813,2013-10-09 01:58:00,
2013-10-08 19:03:00,60.4,45.1,29.63,NNW,337,0.0,0.0,57,0.00,,,0.00,LWC V2.10 B1813,2013-10-09 02:03:00,
2013-10-08 19:08:00,60.4,45.1,29.63,NNW,337,0.0,0.0,57,0.00,,,0.00,LWC V2.10 B1813,2013-10-09 02:08:00,
2013-10-08 19:13:00,60.1,45.2,29.63,NW,315,0.0,0.0,58,0.00,,,0.00,LWC V2.10 B1813,2013-10-09 02:13:00,
2013-10-08 19:18:00,60.1,45.2,29.62,West,270,0.0,0.0,58,0.00,,,0.00,LWC V2.10 B1813,2013-10-09 02:18:00,
2013-10-08 19:23:00,59.7,44.9,29.62,WNW,292,0.0,0.0,58,0.00,,,0.00,LWC V2.10 B1813,2013-10-09 02:23:00,
2013-10-08 19:28:00,59.7,45.4,29.62,North,0,2.0,2.0,59,0.00,,,0.00,LWC V2.10 B1813,2013-10-09 02:28:00,
2013-10-08 19:33:00,59.5,45.7,29.62,NNE,22,0.0,0.0,60,0.00,,,0.00,LWC V2.10 B1813,2013-10-09 02:33:00,
2013-10-08 19:38:00,59.4,45.9,29.62,NNE,22,1.3,3.1,61,0.00,,,0.00,LWC V2.10 B1813,2013-10-09 02:38:00,
2013-10-08 19:43:00,59.2,46.1,29.62,NNE,22,0.0,0.0,62,0.00,,,0.00,LWC V2.10 B1813,2013-10-09 02:43:00,
2013-10-08 19:48:00,59.0,46.0,29.63,NNE,22,0.0,0.0,62,0.00,,,0.00,LWC V2.10 B1813,2013-10-09 02:48:00,
2013-10-08 19:53:00,58.8,45.8,29.62,North,0,2.0,3.6,62,0.00,,,0.00,LWC V2.10 B1813,2013-10-09 02:53:00,
2013-10-08 19:58:00,58.6,46.0,29.62,North,0,0.0,0.0,63,0.00,,,0.00,LWC V2.10 B1813,2013-10-09 02:58:00,
2013-10-08 20:03:00,58.6,46.3,29.63,North,0,0.0,0.0,64,0.00,,,0.00,LWC V2.10 B1813,2013-10-09 03:03:00,
2013-10-08 20:08:00,58.3,46.5,29.63,North,0,0.0,0.0,65,0.00,,,0.00,LWC V2.10 B1813,2013-10-09 03:08:00,
2013-10-08 20:13:00,58.3,46.9,29.63,North,0,0.0,0.0,66,0.00,,,0.00,LWC V2.10 B1813,2013-10-09 03:13:00,
2013-10-08 20:18:00,58.1,47.2,29.63,North,0,0.0,0.0,67,0.00,,,0.00,LWC V2.10 B1813,2013-10-09 03:18:00,
2013-10-08 20:23:00,57.9,47.4,29.63,NNE,22,0.0,0.0,68,0.00,,,0.00,LWC V2.10 B1813,2013-10-09 03:23:00,
2013-10-08 20:28:00,57.9,47.8,29.62,NNE,22,0.0,0.0,69,0.00,,,0.00,LWC V2.10 B1813,2013-10-09 03:28:00,
2013-10-08 20:33:00,57.7,48.2,29.63,NNE,22,0.0,0.0,70,0.00,,,0.00,LWC V2.10 B1813,2013-10-09 03:33:00,
2013-10-08 20:38:00,57.7,48.0,29.63,NNE,22,0.0,0.0,70,0.00,,,0.00,LWC V2.10 B1813,2013-10-09 03:38:00,
2013-10-08 20:43:00,57.7,48.4,29.63,NNE,22,0.0,0.0,71,0.00,,,0.00,LWC V2.10 B1813,2013-10-09 03:43:00,
2013-10-08 20:48:00,57.7,48.4,29.62,NNE,22,0.0,0.0,71,0.00,,,0.00,LWC V2.10 B1813,2013-10-09 03:48:00,
2013-10-08 20:53:00,57.6,48.2,29.63,NNE,22,0.0,0.0,71,0.00,,,0.00,LWC V2.10 B1813,2013-10-09 03:53:00,
2013-10-08 20:58:00,57.6,48.6,29.63,NNE,22,0.0,0.0,72,0.00,,,0.00,LWC V2.10 B1813,2013-10-09 03:58:00,
2013-10-08 21:03:00,57.4,48.4,29.64,NNE,22,0.0,0.0,72,0.00,,,0.00,LWC V2.10 B1813,2013-10-09 04:03:00,
2013-10-08 21:08:00,57.4,48.4,29.63,NNE,22,0.0,0.0,72,0.00,,,0.00,LWC V2.10 B1813,2013-10-09 04:08:00,
2013-10-08 21:13:00,57.4,48.4,29.63,NNE,22,0.0,0.0,72,0.00,,,0.00,LWC V2.10 B1813,2013-10-09 04:13:00,
2013-10-08 21:18:00,57.4,48.2,29.63,NNE,22,0.0,0.0,72,0.00,,,0.00,LWC V2.10 B1813,2013-10-09 04:18:00,
2013-10-08 21:23:00,57.0,48.0,29.63,NNE,22,0.0,0.0,72,0.00,,,0.00,LWC V2.10 B1813,2013-10-09 04:23:00,
2013-10-08 21:28:00,57.0,47.7,29.63,NNE,22,0.0,0.0,71,0.00,,,0.00,LWC V2.10 B1813,2013-10-09 04:28:00,
2013-10-08 21:33:00,57.0,47.7,29.63,NNE,22,0.0,0.0,71,0.00,,,0.00,LWC V2.10 B1813,2013-10-09 04:33:00,
2013-10-08 21:38:00,57.0,47.7,29.63,NNE,22,0.0,0.0,71,0.00,,,0.00,LWC V2.10 B1813,2013-10-09 04:38:00,
2013-10-08 21:43:00,57.0,47.7,29.63,NNE,22,0.0,0.0,71,0.00,,,0.00,LWC V2.10 B1813,2013-10-09 04:43:00,
2013-10-08 21:48:00,57.0,47.7,29.63,NNE,22,0.0,0.0,71,0.00,,,0.00,LWC V2.10 B1813,2013-10-09 04:48:00,
2013-10-08 21:53:00,57.0,48.0,29.63,NNE,22,0.0,0.0,72,0.00,,,0.00,LWC V2.10 B1813,2013-10-09 04:53:00,
2013-10-08 21:58:00,57.0,48.0,29.63,NNE,22,0.0,0.0,72,0.00,,,0.00,LWC V2.10 B1813,2013-10-09 04:58:00,
2013-10-08 22:03:00,57.0,48.0,29.63,NNE,22,0.0,0.0,72,0.00,,,0.00,LWC V2.10 B1813,2013-10-09 05:03:00,
2013-10-08 22:08:00,56.8,48.2,29.63,NNE,22,0.0,0.0,73,0.00,,,0.00,LWC V2.10 B1813,2013-10-09 05:08:00,
2013-10-08 22:13:00,56.8,48.2,29.63,NNE,22,0.0,0.0,73,0.00,,,0.00,LWC V2.10 B1813,2013-10-09 05:13:00,
2013-10-08 22:18:00,56.8,48.2,29.62,WSW,247,0.0,0.0,73,0.00,,,0.00,LWC V2.10 B1813,2013-10-09 05:18:00,
2013-10-08 22:23:00,56.8,48.2,29.62,WSW,247,0.0,0.0,73,0.00,,,0.00,LWC V2.10 B1813,2013-10-09 05:23:00,
2013-10-08 22:28:00,56.8,48.2,29.62,WSW,247,0.0,0.0,73,0.00,,,0.00,LWC V2.10 B1813,2013-10-09 05:28:00,
2013-10-08 22:33:00,56.7,48.1,29.62,WSW,247,0.0,0.0,73,0.00,,,0.00,LWC V2.10 B1813,2013-10-09 05:33:00,
2013-10-08 22:38:00,56.8,47.9,29.62,WSW,247,0.0,0.0,72,0.00,,,0.00,LWC V2.10 B1813,2013-10-09 05:38:00,
2013-10-08 22:43:00,56.8,47.5,29.61,SW,225,0.0,0.0,71,0.00,,,0.00,LWC V2.10 B1813,2013-10-09 05:43:00,
2013-10-08 22:48:00,56.8,47.2,29.61,SW,225,0.0,0.0,70,0.00,,,0.00,LWC V2.10 B1813,2013-10-09 05:48:00,
2013-10-08 22:53:00,56.8,47.2,29.62,SW,225,0.0,0.0,70,0.00,,,0.00,LWC V2.10 B1813,2013-10-09 05:53:00,
2013-10-08 22:58:00,56.8,47.2,29.61,SW,225,0.0,0.0,70,0.00,,,0.00,LWC V2.10 B1813,2013-10-09 05:58:00,
2013-10-08 23:03:00,56.8,47.5,29.61,North,0,0.0,0.0,71,0.00,,,0.00,LWC V2.10 B1813,2013-10-09 06:03:00,
2013-10-08 23:08:00,56.8,47.5,29.61,NNW,337,0.0,0.0,71,0.00,,,0.00,LWC V2.10 B1813,2013-10-09 06:08:00,
2013-10-08 23:13:00,56.8,47.5,29.61,NNW,337,0.0,0.0,71,0.00,,,0.00,LWC V2.10 B1813,2013-10-09 06:13:00,
2013-10-08 23:18:00,56.8,47.9,29.61,North,0,0.0,0.0,72,0.00,,,0.00,LWC V2.10 B1813,2013-10-09 06:18:00,
2013-10-08 23:23:00,56.8,47.9,29.61,North,0,0.0,0.0,72,0.00,,,0.00,LWC V2.10 B1813,2013-10-09 06:23:00,
2013-10-08 23:28:00,56.8,47.9,29.61,North,0,2.0,2.0,72,0.00,,,0.00,LWC V2.10 B1813,2013-10-09 06:28:00,
2013-10-08 23:33:00,56.7,48.1,29.61,North,0,0.0,0.0,73,0.00,,,0.00,LWC V2.10 B1813,2013-10-09 06:33:00,
2013-10-08 23:38:00,56.7,48.1,29.61,North,0,0.0,0.0,73,0.00,,,0.00,LWC V2.10 B1813,2013-10-09 06:38:00,
2013-10-08 23:43:00,56.5,47.9,29.61,North,0,0.0,0.0,73,0.00,,,0.00,LWC V2.10 B1813,2013-10-09 06:43:00,
2013-10-08 23:48:00,56.5,47.9,29.61,North,0,0.0,0.0,73,0.00,,,0.00,LWC V2.10 B1813,2013-10-09 06:48:00,
2013-10-08 23:53:00,56.3,47.7,29.60,North,0,0.0,0.0,73,0.00,,,0.00,LWC V2.10 B1813,2013-10-09 06:53:00,
2013-10-08 23:58:00,56.3,48.1,29.60,North,0,0.0,0.0,74,0.00,,,0.00,LWC V2.10 B1813,2013-10-09 06:58:00,